TimeCST,TemperatureF,Dew PointF,Humidity,Sea Level PressureIn,VisibilityMPH,Wind Direction,Wind SpeedMPH,Gust SpeedMPH,PrecipitationIn,Events,Conditions,WindDirDegrees,DateUTC
12:54 AM,36.0,32.0,86,29.97,10.0,Calm,Calm,-,N/A,,Overcast,0,2012-02-15 06:54:00
1:54 AM,36.0,30.9,82,29.98,10.0,SSE,5.8,-,N/A,,Overcast,150,2012-02-15 07:54:00
2:54 AM,36.0,32.0,86,29.96,10.0,South,8.1,-,0.00,,Overcast,170,2012-02-15 08:54:00
3:54 AM,36.0,32.0,86,29.98,10.0,SSE,5.8,-,N/A,,Mostly Cloudy,160,2012-02-15 09:54:00
4:54 AM,36.0,32.0,86,29.98,10.0,SSE,6.9,-,N/A,,Mostly Cloudy,150,2012-02-15 10:54:00
5:54 AM,36.0,32.0,86,29.96,10.0,SE,6.9,-,N/A,,Overcast,130,2012-02-15 11:54:00
6:54 AM,37.0,33.1,86,29.98,10.0,SSE,13.8,-,N/A,,Overcast,160,2012-02-15 12:54:00
7:54 AM,37.0,33.1,86,29.97,9.0,SSE,10.4,-,N/A,,Overcast,150,2012-02-15 13:54:00
8:18 AM,37.4,33.8,87,29.96,9.0,SSE,10.4,-,N/A,,Mostly Cloudy,150,2012-02-15 14:18:00
8:34 AM,39.2,33.8,81,29.97,10.0,SSE,11.5,-,N/A,,Scattered Clouds,150,2012-02-15 14:34:00
8:54 AM,39.0,35.1,86,29.99,10.0,SSE,11.5,-,N/A,,Partly Cloudy,150,2012-02-15 14:54:00
9:11 AM,39.2,35.6,87,29.97,10.0,SSE,9.2,-,N/A,,Mostly Cloudy,160,2012-02-15 15:11:00
9:54 AM,39.9,36.0,86,29.99,10.0,SSE,10.4,-,N/A,,Overcast,150,2012-02-15 15:54:00
10:54 AM,39.9,37.9,93,30.00,2.0,South,9.2,-,0.00,Rain,Light Rain,170,2012-02-15 16:54:00
11:02 AM,39.2,37.4,93,29.98,1.8,South,8.1,-,0.00,Rain,Light Rain,170,2012-02-15 17:02:00
11:36 AM,39.2,37.4,93,29.99,1.5,South,9.2,-,0.04,Rain,Light Rain,170,2012-02-15 17:36:00
11:51 AM,41.0,39.2,93,29.97,2.0,SSE,9.2,-,0.09,Rain,Rain,160,2012-02-15 17:51:00
11:54 AM,41.0,39.0,93,29.99,2.5,SSE,9.2,-,0.09,Rain,Light Rain,160,2012-02-15 17:54:00
12:32 PM,39.2,39.2,100,29.95,2.5,SE,8.1,-,0.03,Rain,Light Rain,140,2012-02-15 18:32:00
12:54 PM,41.0,39.0,93,29.94,2.5,SE,9.2,-,0.03,Rain,Light Rain,130,2012-02-15 18:54:00
1:02 PM,41.0,39.2,93,29.93,2.5,SE,4.6,-,N/A,Rain,Light Rain,140,2012-02-15 19:02:00
1:22 PM,39.2,39.2,100,29.90,1.8,SSE,12.7,-,0.01,Rain,Light Rain,150,2012-02-15 19:22:00
1:31 PM,41.0,39.2,93,29.90,2.0,SSE,12.7,-,0.01,Rain,Light Rain,150,2012-02-15 19:31:00
1:46 PM,42.8,41.0,93,29.90,3.0,Calm,Calm,-,0.02,Rain,Light Rain,0,2012-02-15 19:46:00
1:54 PM,42.1,41.0,96,29.92,4.0,West,4.6,-,0.02,Rain,Light Rain,280,2012-02-15 19:54:00
2:46 PM,42.8,41.0,93,29.89,4.0,SE,6.9,-,N/A,,Overcast,140,2012-02-15 20:46:00
2:54 PM,44.1,42.1,93,29.90,4.0,SE,6.9,-,0.00,,Overcast,140,2012-02-15 20:54:00
3:54 PM,45.0,43.0,93,29.90,3.0,SSE,3.5,-,N/A,,Overcast,150,2012-02-15 21:54:00
4:20 PM,44.6,42.8,93,29.88,1.5,East,3.5,-,N/A,,Overcast,90,2012-02-15 22:20:00
4:28 PM,44.6,42.8,93,29.87,0.5,ENE,4.6,-,N/A,Fog,Fog,70,2012-02-15 22:28:00
4:29 PM,44.6,42.8,93,29.87,0.2,ENE,4.6,-,N/A,Fog,Fog,60,2012-02-15 22:29:00
4:54 PM,43.0,42.1,97,29.90,0.2,East,3.5,-,N/A,Fog,Fog,90,2012-02-15 22:54:00
5:54 PM,43.0,42.1,97,29.93,0.2,North,3.5,-,N/A,Fog,Fog,360,2012-02-15 23:54:00
6:54 PM,42.1,41.0,96,29.98,0.2,WNW,4.6,-,N/A,Fog,Fog,290,2012-02-16 00:54:00
7:31 PM,41.0,39.2,93,29.94,0.5,Calm,Calm,-,0.06,Fog-Rain,Rain,0,2012-02-16 01:31:00
7:42 PM,42.8,39.2,87,29.93,0.5,ENE,3.5,-,0.10,Fog-Rain,Rain,60,2012-02-16 01:42:00
7:52 PM,42.8,39.2,87,29.94,0.5,NNE,3.5,-,0.12,Fog-Rain,Light Rain,30,2012-02-16 01:52:00
7:54 PM,42.1,39.9,92,29.96,0.5,NNE,3.5,-,0.12,Fog-Rain,Light Rain,30,2012-02-16 01:54:00
8:26 PM,42.8,41.0,93,29.95,0.8,Calm,Calm,-,0.05,Rain,Rain,0,2012-02-16 02:26:00
8:44 PM,42.8,41.0,93,29.95,0.8,Calm,Calm,-,0.13,Rain,Rain,0,2012-02-16 02:44:00
8:54 PM,42.1,41.0,96,29.96,0.8,Calm,Calm,-,0.16,Rain,Rain,0,2012-02-16 02:54:00
9:18 PM,42.8,41.0,93,29.95,0.8,Calm,Calm,-,0.06,Rain,Light Rain,0,2012-02-16 03:18:00
9:27 PM,42.8,41.0,93,29.95,0.8,NNE,3.5,-,0.06,Rain,Light Rain,20,2012-02-16 03:27:00
9:54 PM,42.1,39.9,92,29.96,0.5,NNE,4.6,-,0.09,Fog-Rain,Light Rain,30,2012-02-16 03:54:00
10:03 PM,42.8,39.2,87,29.94,0.5,ENE,4.6,-,0.00,Fog,Fog,60,2012-02-16 04:03:00
10:24 PM,41.0,39.2,93,29.94,0.2,Calm,Calm,-,0.00,Fog-Rain,Light Rain,0,2012-02-16 04:24:00
10:39 PM,39.2,39.2,100,29.95,0.2,Calm,Calm,-,0.00,Fog,Fog,0,2012-02-16 04:39:00
10:49 PM,41.0,39.2,93,29.96,0.2,WSW,3.5,-,0.00,Fog,Fog,240,2012-02-16 04:49:00
10:54 PM,42.1,41.0,96,29.98,0.5,WSW,3.5,-,0.00,Fog,Fog,240,2012-02-16 04:54:00
11:31 PM,42.8,42.8,100,29.98,1.0,SW,5.8,-,0.05,Rain,Light Rain,230,2012-02-16 05:31:00
11:54 PM,43.0,42.1,97,29.99,1.0,Calm,Calm,-,0.08,Rain,Light Rain,0,2012-02-16 05:54:00